Weather in Fort Myers

United States     26°38′24″N   81°52′22″W
temp.,
°C
wind,
m/s
gust,
m/s
humid.,
%
clouds,
%
prec.,
mm/h
press.,
hPa
HPBL,
m
24 may, tue
tue2423:00+27e476617 0.1 1018541
02:00+24ese38805 0.1 1017305
05:00+23e38907 0.0 1016237
08:00+25ese488125 0.0 1017409
11:00+31ese45475 0.0 10171804
14:00+35ese563134 0.0 10152877
17:00+34sse3532100 0.0 10142387
20:00+30sw235378 0.0 1015203
25 may, wed
wed2523:00+26ese4105448 0.1 1017577
02:00+23e3969100 0.1 1017340
05:00+23ese4117684 0.0 1016397
08:00+24ese497189 0.0 1018408
11:00+31se674260 0.1 10181832
14:00+35ese882893 0.1 10162859
17:00+34ese7835100 0.0 10142434
20:00+28ese5959100 0.8 1017758
26 may, thu
thu2623:00+26ese51064100 0.4 1018605
02:00+24ese5117699 0.4 1017468
05:00+23ese41077100 0.0 1016420
08:00+24ese497487 0.0 1018441
11:00+31se67459 0.0 10181612
14:00+35se45288 0.0 10162648
17:00+33sw863839 0.0 10141340
20:00+29sse575557 0.8 1016826
27 may, fri
fri2723:00+26se36667 0.0 1017155
02:00+24se37787 0.0 1016259
05:00+22se25876 0.0 1016118
08:00+25se35803 0.0 1016254
11:00+31sse45495 0.0 10161772
14:00+34sw764197 0.0 10142280
17:00+29sw575457 1.1 1013670
20:00+28sw46594 1.3 1013278
28 may, sat
sat2823:00+25ssw22765 0.4 101520
02:00+23se22890 1.9 101353
05:00+23s22890 0.0 101331
08:00+25s23770 0.0 1014203
11:00+31sw34499 0.0 10131693
14:00+33wsw76420 0.0 10122023
17:00+31wsw76485 0.0 10111669
20:00+27wsw56640 0.0 1012824